Overview Statistics Trail Chart Weather Telemetry Raw packets
 

This is the latest recevied weather packets stored in our database for station/object KV4OP. If no packets are shown the sender has not sent any weather packets the latest 10 day(s).

<< 105 106 107 108 109 110 111 >>
Time Temp. Humidity Pressure Rain* Wind** Luminosity Snow
1787864115 23.89° C 77% 1017.1 hPa 19.05 mm - - -
1787863803 23.89° C 77% 1017.1 hPa 19.81 mm - - -
1787862961 23.89° C 77% 1017.7 hPa 18.03 mm - - -
1787862643 24.44° C 76% 1017.8 hPa 16.26 mm - - -
1787862332 24.44° C 76% 1018.1 hPa 14.22 mm - - -
1787862023 25° C 75% 1018.3 hPa 10.92 mm - - -
1787860556 28.33° C 69% 1016.9 hPa 1.02 mm - - -
1787860256 28.89° C 67% 1016.5 hPa 0 mm - - -
1787859956 29.44° C 67% 1016.4 hPa 0 mm - - -
1787859356 30° C 64% 1016.4 hPa 0 mm - - -
1787859056 30° C 63% 1016.5 hPa 0 mm - - -
1787858756 30.56° C 62% 1016.5 hPa 0 mm - - -
1787858467 30.56° C 59% 1016.5 hPa 0 mm - - -
1787858156 30.56° C 60% 1016.6 hPa 0 mm - - -
1787857857 31.11° C 59% 1016.6 hPa 0 mm - - -
1787857558 31.67° C 55% 1016.7 hPa 0 mm - - -
1787857265 33.33° C 54% 1016.8 hPa 0 mm - - -
1787856956 33.33° C 55% 1016.7 hPa 0 mm - - -
1787856656 33.33° C 54% 1016.7 hPa 0 mm - - -
1787856356 33.33° C 55% 1016.8 hPa 0 mm - - -
1787856065 33.33° C 54% 1016.9 hPa 0 mm - - -
1787855756 32.78° C 55% 1017.1 hPa 0 mm - - -
1787855456 33.33° C 54% 1017.1 hPa 0 mm - - -
1787855157 33.33° C 53% 1017 hPa 0 mm - - -
1787854868 33.33° C 55% 1017 hPa 0 mm - - -

* Rain latest hour (hover to see other rain measurements)
** Current wind speed in m/s (hover to see current wind gust speed)